This demonstration page uses our WeatherBlox Daily Observations layout. Learn more.

Left ArrowRight Arrow

Hourly Observations for April 10, 2015

Temp ( °F °C ) Dew Point ( °F °C ) Humidity (%) Winds ( mph kmh ) Pressure ( in mb ) Visibility ( mi km ) Precip ( " mm )
12:53 am 00:53 Clear 37 2.8 22 -5.6 54 54 SW 6 9 29.99 1016 10 16 N/A
1:53 am 01:53 Clear 37 2.8 23 -5 57 57 SW 9 15 29.98 1015 10 16 N/A
2:53 am 02:53 Clear 33 0.6 23 -5 66 66 WSW 5 7 29.97 1015 10 16 N/A
3:53 am 03:53 Clear 34 1.1 23 -5 64 64 N N/A 29.96 1015 10 16 N/A
4:53 am 04:53 Clear 29 -1.7 22 -5.6 75 75 N N/A 29.98 1015 10 16 N/A
5:53 am 05:53 Clear 27 -2.8 21 -6.1 78 78 N N/A 29.98 1015 10 16 N/A
6:53 am 06:53 Sunny 28 -2.2 24 -4.4 85 85 N N/A 29.99 1016 10 16 N/A
7:53 am 07:53 Sunny 35 1.7 27 -2.8 72 72 N N/A 29.99 1016 10 16 N/A
8:53 am 08:53 Sunny 42 5.6 30 -1.1 62 62 SW 7 11 29.99 1016 10 16 N/A
9:53 am 09:53 Sunny 53 11.7 32 undefined 45 45 SW 14 22 29.96 1015 10 16 N/A
10:53 am 10:53 Sunny 55 12.8 32 undefined 42 42 SW 17 28 29.94 1014 10 16 N/A
11:53 am 11:53 Sunny 59 15 32 undefined 36 36 SW 18 30 29.92 1013 10 16 N/A
12:53 pm 12:53 Sunny 62 16.7 31 -0.6 31 31 SSW 21 33 29.89 1012 10 16 N/A
1:53 pm 13:53 Sunny 64 17.8 30 -1.1 28 28 SSW 24 39 29.86 1011 10 16 N/A
2:53 pm 14:53 Sunny 64 17.8 26 -3.3 24 24 SW 17 28 29.84 1011 10 16 N/A
3:53 pm 15:53 Mostly Sunny 64 17.8 25 -3.9 23 23 SSW 14 22 29.81 1010 10 16 N/A
4:53 pm 16:53 Partly Cloudy 66 18.9 24 -4.4 20 20 SW 22 35 29.79 1009 10 16 N/A
5:53 pm 17:53 Mostly Sunny 65 18.3 23 -5 20 20 SW 23 37 29.77 1008 10 16 N/A
6:53 pm 18:53 Sunny 60 15.6 24 -4.4 25 25 SSW 13 20 29.77 1008 10 16 N/A
7:53 pm 19:53 Sunny 54 12.2 25 -3.9 33 33 S 12 19 29.75 1008 10 16 N/A
8:53 pm 20:53 Clear 51 10.6 24 -4.4 35 35 SSW 12 19 29.75 1008 10 16 N/A
9:53 pm 21:53 Clear 47 8.3 25 -3.9 42 42 S 9 15 29.73 1007 10 16 N/A
10:53 pm 22:53 Mostly Clear 44 6.7 26 -3.3 49 49 WNW 3 6 29.72 1007 10 16 N/A
11:53 pm 23:53 Clear 46 7.8 26 -3.3 46 46 N N/A 29.70 1006 10 16 N/A

Powered by AerisWeather